TimePDT,TemperatureF,Dew PointF,Humidity,Sea Level PressureIn,VisibilityMPH,Wind Direction,Wind SpeedMPH,Gust SpeedMPH,PrecipitationIn,Events,Conditions,WindDirDegrees,DateUTC
12:55 AM,50.0,37.0,61,30.02,10.0,WNW,4.6,17.3,N/A,,Overcast,290,2013-10-12 07:55:00
1:55 AM,48.9,37.0,64,30.03,10.0,South,16.1,-,N/A,,Overcast,170,2013-10-12 08:55:00
2:14 AM,48.2,37.4,66,30.02,10.0,South,15.0,-,N/A,,Overcast,190,2013-10-12 09:14:00
2:55 AM,48.0,37.9,68,30.02,10.0,SW,11.5,-,N/A,,Overcast,220,2013-10-12 09:55:00
3:55 AM,48.0,39.0,71,30.02,10.0,South,17.3,-,N/A,,Overcast,170,2013-10-12 10:55:00
4:05 AM,48.2,39.2,71,30.01,10.0,South,15.0,-,N/A,,Overcast,190,2013-10-12 11:05:00
4:55 AM,48.0,37.9,68,30.02,10.0,SSW,13.8,-,N/A,,Overcast,200,2013-10-12 11:55:00
5:55 AM,46.9,39.0,74,30.03,10.0,West,5.8,17.3,N/A,,Overcast,270,2013-10-12 12:55:00
6:55 AM,46.9,37.9,71,30.04,10.0,NW,3.5,-,N/A,,Overcast,310,2013-10-12 13:55:00
7:55 AM,46.9,37.9,71,30.05,10.0,North,-9999.0,-,N/A,,Overcast,0,2013-10-12 14:55:00
8:55 AM,48.0,37.9,68,30.07,10.0,West,9.2,-,N/A,,Overcast,270,2013-10-12 15:55:00
9:55 AM,48.9,37.0,64,30.08,10.0,WNW,9.2,-,N/A,,Overcast,300,2013-10-12 16:55:00
10:55 AM,50.0,37.0,61,30.09,10.0,NW,5.8,-,N/A,,Overcast,310,2013-10-12 17:55:00
11:55 AM,51.1,36.0,56,30.09,10.0,WNW,10.4,-,N/A,,Overcast,290,2013-10-12 18:55:00
12:55 PM,51.1,37.0,59,30.09,10.0,WNW,8.1,-,N/A,,Overcast,290,2013-10-12 19:55:00
1:55 PM,51.1,37.0,59,30.09,10.0,Variable,4.6,-,N/A,,Overcast,0,2013-10-12 20:55:00
2:55 PM,53.1,36.0,52,30.09,10.0,NW,4.6,-,N/A,,Overcast,310,2013-10-12 21:55:00
3:55 PM,54.0,35.1,49,30.09,10.0,West,3.5,-,N/A,,Mostly Cloudy,280,2013-10-12 22:55:00
4:55 PM,53.1,36.0,52,30.09,10.0,WNW,3.5,-,N/A,,Partly Cloudy,290,2013-10-12 23:55:00
5:55 PM,52.0,36.0,54,30.10,10.0,NNW,3.5,-,N/A,,Partly Cloudy,330,2013-10-13 00:55:00
6:55 PM,48.9,34.0,56,30.12,10.0,North,5.8,-,N/A,,Mostly Cloudy,350,2013-10-13 01:55:00
7:55 PM,48.0,35.1,61,30.14,10.0,NW,3.5,-,N/A,,Mostly Cloudy,310,2013-10-13 02:55:00
8:55 PM,48.9,36.0,61,30.15,10.0,NW,5.8,-,N/A,,Overcast,310,2013-10-13 03:55:00
9:55 PM,48.9,37.0,64,30.16,10.0,WNW,8.1,-,N/A,,Overcast,290,2013-10-13 04:55:00
10:55 PM,48.0,39.0,71,30.17,10.0,WNW,6.9,-,N/A,,Overcast,290,2013-10-13 05:55:00
11:55 PM,46.0,39.0,76,30.18,10.0,West,8.1,-,N/A,,Overcast,270,2013-10-13 06:55:00